| time (UTC) | temp F | wind direction | speed MPH | gust MPH | rain 1hr in | rain 24hr in | rain mn in | humidity % | barometer mb |
| 20260505213021 | 80 | 201 | 5.0 | 13.0 | 0.00 | 0.01 | 0.01 | 37 | 1007.5 |
| 20260505210025 | 80 | 210 | 7.0 | 16.0 | 0.00 | 0.01 | 0.01 | 36 | 1007.3 |
| 20260505204510 | 81 | 200 | 9.0 | 18.0 | 0.00 | 0.01 | 0.01 | 35 | 1007.3 |
| 20260505201519 | 80 | 236 | 8.0 | 22.0 | 0.00 | 0.01 | 0.01 | 35 | 1007.4 |
| 20260505193012 | 80 | 247 | 9.0 | 19.0 | 0.00 | 0.01 | 0.01 | 35 | 1007.6 |
| 20260505191516 | 81 | 221 | 7.0 | 18.0 | 0.00 | 0.01 | 0.01 | 34 | 1007.5 |
| 20260505190029 | 80 | 219 | 9.0 | 20.0 | 0.00 | 0.01 | 0.01 | 35 | 1007.8 |
| 20260505184526 | 81 | 257 | 6.0 | 21.0 | 0.00 | 0.01 | 0.01 | 34 | 1007.9 |
| 20260505183009 | 82 | 238 | 6.0 | 16.0 | 0.00 | 0.01 | 0.01 | 36 | 1008.2 |
| 20260505180022 | 80 | 214 | 8.0 | 18.0 | 0.00 | 0.01 | 0.01 | 34 | 1008.4 |
| 20260505174525 | 80 | 203 | 9.0 | 21.0 | 0.00 | 0.01 | 0.01 | 35 | 1008.8 |
| 20260505173036 | 80 | 229 | 7.0 | 15.0 | 0.00 | 0.01 | 0.01 | 40 | 1008.9 |
| 20260505170019 | 79 | 248 | 7.0 | 14.0 | 0.00 | 0.01 | 0.01 | 40 | 1009.1 |
| 20260505164523 | 78 | 281 | 7.0 | 16.0 | 0.00 | 0.01 | 0.01 | 42 | 1009.2 |
| 20260505163024 | 78 | 260 | 7.0 | 16.0 | 0.00 | 0.01 | 0.01 | 42 | 1009.6 |
| 20260505161526 | 77 | 246 | 6.0 | 15.0 | 0.00 | 0.01 | 0.01 | 42 | 1009.6 |
| 20260505153025 | 76 | 243 | 8.0 | 13.0 | 0.00 | 0.01 | 0.01 | 45 | 1010.0 |
| 20260505151533 | 75 | 194 | 5.0 | 14.0 | 0.00 | 0.01 | 0.01 | 44 | 1010.0 |
| 20260505124518 | 63 | 246 | 3.0 | 11.0 | 0.00 | 0.01 | 0.01 | 66 | 1010.6 |
| 20260505101525 | 52 | 207 | 0.0 | 2.0 | 0.00 | 0.01 | 0.01 | 89 | 1010.0 |
| 20260505100026 | 53 | 102 | 0.0 | 0.0 | 0.01 | 0.01 | 0.01 | 88 | 1009.8 |
| 20260505094528 | 54 | 102 | 0.0 | 0.0 | 0.01 | 0.01 | 0.01 | 86 | 1009.9 |
| 20260505093018 | 55 | 102 | 0.0 | 1.0 | 0.01 | 0.01 | 0.01 | 84 | 1010.0 |
| 20260505091527 | 57 | 158 | 0.0 | 2.0 | 0.01 | 0.01 | 0.01 | 78 | 1009.7 |
| 20260505090036 | 58 | 188 | 0.0 | 2.0 | 0.00 | 0.00 | 0.00 | 69 | 1010.0 |
| 20260505084525 | 58 | 194 | 1.0 | 3.0 | 0.00 | 0.00 | 0.00 | 67 | 1009.5 |
| 20260505083029 | 60 | 325 | 1.0 | 4.0 | 0.00 | 0.00 | 0.00 | 65 | 1009.7 |
| 20260505081518 | 60 | 219 | 3.0 | 6.0 | 0.00 | 0.00 | 0.00 | 64 | 1009.2 |
| 20260505080021 | 60 | 264 | 3.0 | 7.0 | 0.00 | 0.00 | 0.00 | 63 | 1009.2 |
| 20260505074524 | 60 | 227 | 4.0 | 9.0 | 0.00 | 0.00 | 0.00 | 63 | 1009.3 |
| 20260505073043 | 60 | 202 | 3.0 | 8.0 | 0.00 | 0.00 | 0.00 | 63 | 1009.4 |
| 20260505071519 | 60 | 223 | 2.0 | 5.0 | 0.00 | 0.00 | 0.00 | 62 | 1009.4 |
| 20260505070021 | 60 | 218 | 3.0 | 7.0 | 0.00 | 0.00 | 0.00 | 62 | 1009.4 |
| 20260505064536 | 59 | 201 | 3.0 | 6.0 | 0.00 | 0.00 | 0.00 | 61 | 1009.3 |
| 20260505063026 | 59 | 235 | 3.0 | 7.0 | 0.00 | 0.00 | 0.00 | 61 | 1009.3 |
| 20260505061540 | 59 | 222 | 3.0 | 7.0 | 0.00 | 0.00 | 0.00 | 60 | 1009.4 |
| 20260505060016 | 59 | 187 | 3.0 | 8.0 | 0.00 | 0.00 | 0.00 | 59 | 1009.3 |
| 20260505054514 | 60 | 236 | 4.0 | 9.0 | 0.00 | 0.00 | 0.00 | 58 | 1009.3 |
| 20260505053015 | 60 | 257 | 4.0 | 8.0 | 0.00 | 0.00 | 0.00 | 56 | 1009.3 |
| 20260505051514 | 60 | 230 | 4.0 | 8.0 | 0.00 | 0.00 | 0.00 | 55 | 1009.4 |
| 20260505034517 | 61 | 216 | 3.0 | 10.0 | 0.00 | 0.00 | 0.00 | 51 | 1009.1 |
| 20260505033020 | 61 | 265 | 3.0 | 6.0 | 0.00 | 0.00 | 0.00 | 51 | 1009.2 |
| 20260505031537 | 61 | 169 | 2.0 | 5.0 | 0.00 | 0.00 | 0.00 | 50 | 1009.3 |
| 20260505024530 | 62 | 251 | 2.0 | 7.0 | 0.00 | 0.00 | 0.00 | 49 | 1009.3 |
| 20260505023020 | 62 | 252 | 2.0 | 4.0 | 0.00 | 0.00 | 0.00 | 49 | 1009.5 |
| 20260505021520 | 62 | 228 | 2.0 | 5.0 | 0.00 | 0.00 | 0.00 | 49 | 1009.6 |
| 20260505020028 | 63 | 188 | 1.0 | 6.0 | 0.00 | 0.00 | 0.00 | 48 | 1009.7 |
| 20260505014523 | 63 | 159 | 1.0 | 4.0 | 0.00 | 0.00 | 0.00 | 48 | 1009.6 |
| 20260505013019 | 63 | 229 | 1.0 | 4.0 | 0.00 | 0.00 | 0.00 | 47 | 1009.6 |
| 20260505011530 | 63 | 227 | 2.0 | 9.0 | 0.00 | 0.00 | 0.00 | 47 | 1009.6 |
| 20260505010019 | 63 | 221 | 1.0 | 4.0 | 0.00 | 0.00 | 0.00 | 47 | 1009.5 |
| 20260505004539 | 64 | 250 | 2.0 | 5.0 | 0.00 | 0.00 | 0.00 | 46 | 1009.4 |
| 20260505003019 | 64 | 218 | 1.0 | 3.0 | 0.00 | 0.00 | 0.00 | 45 | 1009.2 |
| 20260505001519 | 65 | 223 | 1.0 | 4.0 | 0.00 | 0.00 | 0.00 | 44 | 1009.2 |
| 20260505000035 | 66 | 237 | 2.0 | 6.0 | 0.00 | 0.00 | 0.00 | 42 | 1009.0 |
| 20260504234526 | 67 | 241 | 4.0 | 11.0 | 0.00 | 0.00 | 0.00 | 40 | 1008.9 |
| 20260504233014 | 68 | 229 | 4.0 | 12.0 | 0.00 | 0.00 | 0.00 | 40 | 1008.8 |
| 20260504231519 | 68 | 222 | 5.0 | 12.0 | 0.00 | 0.00 | 0.00 | 39 | 1008.7 |
| 20260504230021 | 69 | 223 | 4.0 | 10.0 | 0.00 | 0.00 | 0.00 | 39 | 1008.5 |
| 20260504224521 | 70 | 240 | 3.0 | 14.0 | 0.00 | 0.00 | 0.00 | 39 | 1008.5 |
| 20260504223020 | 70 | 205 | 4.0 | 12.0 | 0.00 | 0.00 | 0.00 | 40 | 1008.4 |
| 20260504221518 | 70 | 264 | 4.0 | 12.0 | 0.00 | 0.00 | 0.00 | 39 | 1008.6 |
| 20260504220026 | 71 | 230 | 6.0 | 12.0 | 0.00 | 0.00 | 0.00 | 37 | 1008.6 |
| 20260504214521 | 72 | 275 | 4.0 | 9.0 | 0.00 | 0.00 | 0.00 | 36 | 1008.5 |